Tracking 29892 objects as of 21-Nov-2024
HD Live streaming from Space Station
objects crossing your sky now

CZ-6A DEB

Track CZ-6A DEB now!
10-day predictions


NORAD ID: 54570
Int'l Code: 2022-151LW
Perigee: 794.3 km
Apogee: 843.9 km
Inclination: 98.8 °
Period: 101.1 minutes
Semi major axis: 7190 km
RCS: Unknown
Launch date: November 11, 2022
Source: People's Republic of China (PRC)
Launch site: Taiyaun Space Center, China (TSC)

Note: This is SATELLITE DEBRIS
Your satellite tracking list
Your tracking list is empty




NASA's NSSDC Master Catalog

Two Line Element Set (TLE):
1 54570U 22151LW  24325.27542726  .00001382  00000-0  61826-3 0  9993
2 54570  98.8017 340.5038 0034507 214.4870 145.4070 14.23964402104847
Source of the keplerian elements: AFSPC